Location: *
(12.5665°N, 8.3471°E)
Time: 10:51:54
(UTC+00:00)

USA 229 - Pass Details

Date: 23 September 2019
Orbit: 1003 x 1209 km, 63.5° (Epoch: 08 October)

Event Time Altitude Azimuth Distance (km) Brightness Sun altitude
Rises 04:37:06 0° 214° (SSW) 3,723 6.2 -10.3°
Reaches altitude 10° 04:39:44 10° 218° (SW) 2,768 5.5 -9.6°
Maximum altitude 04:46:03 56° 295° (WNW) 1,185 3.7 -8.1°
Drops below altitude 10° 04:52:28 10° 12° (NNE) 2,806 6.1 -6.5°
Sets 04:55:10 0° 17° (NNE) 3,779 6.8 -5.9°
